Time,TemperatureF,DewpointF,PressureIn,WindDirection,WindDirectionDegrees,WindSpeedMPH,WindSpeedGustMPH,Humidity,HourlyPrecipIn,Conditions,Clouds,dailyrainin,SoftwareType,DateUTC
2013-03-01 00:00:00,51.6,47.5,30.47,SSW,202,1.3,4.0,86,0.00,,,0.00,open2300-1.11,2013-03-01 08:00:00,
2013-03-01 00:10:00,51.6,47.5,30.47,South,180,3.1,8.7,86,0.00,,,0.00,open2300-1.11,2013-03-01 08:10:00,
2013-03-01 00:20:00,51.6,47.5,30.47,South,180,0.0,8.5,86,0.00,,,0.00,open2300-1.11,2013-03-01 08:20:00,
2013-03-01 00:30:00,51.6,47.5,30.46,SSE,157,3.4,6.5,86,0.00,,,0.00,open2300-1.11,2013-03-01 08:30:00,
2013-03-01 00:40:00,51.8,47.7,30.47,South,180,0.0,12.8,86,0.00,,,0.00,open2300-1.11,2013-03-01 08:40:00,
2013-03-01 00:50:00,51.8,47.7,30.47,South,180,2.9,10.5,86,0.00,,,0.00,open2300-1.11,2013-03-01 08:50:00,
2013-03-01 01:10:00,51.8,47.7,30.46,SE,135,5.8,8.7,86,0.00,,,0.00,open2300-1.11,2013-03-01 09:10:00,
2013-03-01 01:20:00,52.0,47.9,30.46,South,180,4.5,7.8,86,0.00,,,0.00,open2300-1.11,2013-03-01 09:20:00,
2013-03-01 01:30:00,52.0,47.9,30.46,South,180,0.0,8.1,86,0.00,,,0.00,open2300-1.11,2013-03-01 09:30:00,
2013-03-01 01:40:00,52.0,47.9,30.48,South,180,6.7,9.6,86,0.00,,,0.00,open2300-1.11,2013-03-01 09:40:00,
2013-03-01 01:50:00,52.2,47.8,30.48,SSW,202,3.1,8.9,85,0.00,,,0.00,open2300-1.11,2013-03-01 09:50:00,
2013-03-01 02:10:00,52.0,47.6,30.48,South,180,0.0,9.8,85,0.00,,,0.00,open2300-1.11,2013-03-01 10:10:00,
2013-03-01 02:20:00,52.0,47.6,30.47,South,180,6.5,8.7,85,0.00,,,0.00,open2300-1.11,2013-03-01 10:20:00,
2013-03-01 02:30:00,52.0,47.6,30.48,SSW,202,3.6,9.4,85,0.00,,,0.00,open2300-1.11,2013-03-01 10:30:00,
2013-03-01 02:40:00,52.0,47.6,30.48,SSE,157,2.9,7.8,85,0.00,,,0.00,open2300-1.11,2013-03-01 10:40:00,
2013-03-01 02:50:00,52.0,47.6,30.47,SSE,157,0.0,6.0,85,0.00,,,0.00,open2300-1.11,2013-03-01 10:50:00,
2013-03-01 03:00:00,51.8,47.4,30.47,South,180,5.4,6.7,85,0.00,,,0.00,open2300-1.11,2013-03-01 11:00:00,
2013-03-01 03:10:00,51.6,47.2,30.47,South,180,3.8,6.5,85,0.00,,,0.00,open2300-1.11,2013-03-01 11:10:00,
2013-03-01 03:20:00,51.6,47.2,30.47,SSE,157,0.0,8.3,85,0.00,,,0.00,open2300-1.11,2013-03-01 11:20:00,
2013-03-01 03:30:00,51.6,47.2,30.47,South,180,0.0,8.5,85,0.00,,,0.00,open2300-1.11,2013-03-01 11:30:00,
2013-03-01 03:40:00,51.6,47.2,30.47,South,180,0.0,8.1,85,0.00,,,0.00,open2300-1.11,2013-03-01 11:40:00,
2013-03-01 03:50:00,51.6,47.2,30.47,South,180,0.0,8.3,85,0.00,,,0.00,open2300-1.11,2013-03-01 11:50:00,
2013-03-01 04:00:00,51.6,47.2,30.47,SW,225,4.9,9.2,85,0.00,,,0.00,open2300-1.11,2013-03-01 12:00:00,
2013-03-01 04:10:00,51.6,47.2,30.47,South,180,5.6,8.7,85,0.00,,,0.00,open2300-1.11,2013-03-01 12:10:00,
2013-03-01 04:20:00,51.6,47.2,30.46,South,180,6.9,9.2,85,0.00,,,0.00,open2300-1.11,2013-03-01 12:20:00,
2013-03-01 04:30:00,51.6,47.2,30.46,South,180,8.1,8.1,85,0.00,,,0.00,open2300-1.11,2013-03-01 12:30:00,
2013-03-01 04:40:00,51.6,47.2,30.46,SSW,202,0.0,8.1,85,0.00,,,0.00,open2300-1.11,2013-03-01 12:40:00,
2013-03-01 04:50:00,51.6,47.2,30.46,SSE,157,2.9,8.3,85,0.00,,,0.00,open2300-1.11,2013-03-01 12:50:00,
2013-03-01 05:02:00,51.6,47.2,30.46,South,180,0.0,0.0,85,0.00,,,0.00,open2300-1.11,2013-03-01 13:02:00,
2013-03-01 05:10:00,51.4,47.0,30.46,South,180,6.3,114.1,85,0.00,,,0.00,open2300-1.11,2013-03-01 13:10:00,
2013-03-01 05:20:00,51.4,47.3,30.46,South,180,5.8,8.5,86,0.00,,,0.00,open2300-1.11,2013-03-01 13:20:00,
2013-03-01 05:30:00,51.1,46.7,30.45,South,180,2.5,8.3,85,0.00,,,0.00,open2300-1.11,2013-03-01 13:30:00,
2013-03-01 05:40:00,50.9,46.5,30.46,South,180,7.2,8.7,85,0.00,,,0.00,open2300-1.11,2013-03-01 13:40:00,
2013-03-01 05:50:00,50.7,46.3,30.46,SSW,202,8.7,9.2,85,0.00,,,0.00,open2300-1.11,2013-03-01 13:50:00,
2013-03-01 06:00:00,50.7,46.3,30.46,SW,225,6.0,10.5,85,0.00,,,0.00,open2300-1.11,2013-03-01 14:00:00,
2013-03-01 06:10:00,50.7,46.3,30.46,SSW,202,0.7,9.6,85,0.00,,,0.00,open2300-1.11,2013-03-01 14:10:00,
2013-03-01 06:20:00,50.7,46.3,30.46,SSW,202,7.2,9.4,85,0.00,,,0.00,open2300-1.11,2013-03-01 14:20:00,
2013-03-01 06:30:00,50.4,46.0,30.46,South,180,0.0,8.3,85,0.00,,,0.00,open2300-1.11,2013-03-01 14:30:00,
2013-03-01 06:40:00,50.2,45.8,30.46,SSW,202,7.8,7.8,85,0.00,,,0.00,open2300-1.11,2013-03-01 14:40:00,
2013-03-01 06:50:00,50.2,46.1,30.45,South,180,0.0,9.4,86,0.00,,,0.00,open2300-1.11,2013-03-01 14:50:00,
2013-03-01 07:00:00,49.8,45.7,30.45,SSW,202,0.0,0.0,86,0.00,,,0.00,open2300-1.11,2013-03-01 15:00:00,
2013-03-01 07:10:00,49.8,45.7,30.46,SW,225,1.6,7.6,86,0.00,,,0.00,open2300-1.11,2013-03-01 15:10:00,
2013-03-01 07:20:00,49.8,45.7,30.45,SSW,202,0.0,7.4,86,0.00,,,0.00,open2300-1.11,2013-03-01 15:20:00,
2013-03-01 07:30:00,50.2,46.1,30.45,South,180,6.5,7.2,86,0.00,,,0.00,open2300-1.11,2013-03-01 15:30:00,
2013-03-01 07:40:00,50.7,46.6,30.46,South,180,6.3,8.9,86,0.00,,,0.00,open2300-1.11,2013-03-01 15:40:00,
2013-03-01 07:50:00,51.6,47.5,30.45,SSW,202,0.0,0.0,86,0.00,,,0.00,open2300-1.11,2013-03-01 15:50:00,
2013-03-01 08:00:00,52.2,48.1,30.46,South,180,4.7,114.1,86,0.00,,,0.00,open2300-1.11,2013-03-01 16:00:00,
2013-03-01 08:10:00,52.3,47.9,30.46,South,180,0.0,4.7,85,0.00,,,0.00,open2300-1.11,2013-03-01 16:10:00,
2013-03-01 08:20:00,52.9,48.5,30.46,SE,135,0.0,2.0,85,0.00,,,0.00,open2300-1.11,2013-03-01 16:20:00,
2013-03-01 08:30:00,53.4,48.7,30.46,SSE,157,0.0,0.9,84,0.00,,,0.00,open2300-1.11,2013-03-01 16:30:00,
2013-03-01 08:40:00,53.8,49.0,30.46,SSE,157,0.0,0.0,84,0.00,,,0.00,open2300-1.11,2013-03-01 16:40:00,
2013-03-01 08:50:00,54.1,49.1,30.47,South,180,0.0,0.0,83,0.00,,,0.00,open2300-1.11,2013-03-01 16:50:00,
2013-03-01 09:00:00,54.9,49.8,30.47,South,180,0.0,1.8,83,0.00,,,0.00,open2300-1.11,2013-03-01 17:00:00,
2013-03-01 09:10:00,56.8,51.4,30.47,South,180,0.0,0.0,82,0.00,,,0.00,open2300-1.11,2013-03-01 17:10:00,
2013-03-01 09:20:00,57.7,50.5,30.47,SW,225,0.0,6.9,77,0.00,,,0.00,open2300-1.11,2013-03-01 17:20:00,
2013-03-01 09:30:00,58.1,50.2,30.46,SW,225,1.6,7.6,75,0.00,,,0.00,open2300-1.11,2013-03-01 17:30:00,
2013-03-01 09:40:00,58.8,50.9,30.47,SW,225,0.0,7.2,75,0.00,,,0.00,open2300-1.11,2013-03-01 17:40:00,
2013-03-01 09:50:00,58.8,49.8,30.46,SSW,202,3.4,7.8,72,0.00,,,0.00,open2300-1.11,2013-03-01 17:50:00,
2013-03-01 10:00:00,58.8,50.5,30.46,SSW,202,0.0,8.1,74,0.00,,,0.00,open2300-1.11,2013-03-01 18:00:00,
2013-03-01 10:10:00,58.8,50.2,30.46,South,180,3.8,7.2,73,0.00,,,0.00,open2300-1.11,2013-03-01 18:10:00,
2013-03-01 10:20:00,58.8,50.2,30.47,SW,225,0.0,4.9,73,0.00,,,0.00,open2300-1.11,2013-03-01 18:20:00,
2013-03-01 10:30:00,58.6,49.6,30.47,SSW,202,0.0,8.5,72,0.00,,,0.00,open2300-1.11,2013-03-01 18:30:00,
2013-03-01 10:40:00,58.6,49.6,30.47,SSE,157,1.3,8.1,72,0.00,,,0.00,open2300-1.11,2013-03-01 18:40:00,
2013-03-01 10:50:00,59.2,50.5,30.46,SSE,157,0.0,6.5,73,0.00,,,0.00,open2300-1.11,2013-03-01 18:50:00,
2013-03-01 11:00:00,59.9,50.9,30.46,ESE,112,3.4,7.2,72,0.00,,,0.00,open2300-1.11,2013-03-01 19:00:00,
2013-03-01 11:10:00,60.1,51.1,30.45,SE,135,0.0,11.4,72,0.00,,,0.00,open2300-1.11,2013-03-01 19:10:00,
2013-03-01 11:20:00,60.4,51.1,30.45,SE,135,4.7,9.2,71,0.00,,,0.00,open2300-1.11,2013-03-01 19:20:00,
2013-03-01 11:30:00,60.4,51.1,30.45,SE,135,0.9,8.3,71,0.00,,,0.00,open2300-1.11,2013-03-01 19:30:00,
2013-03-01 11:40:00,61.0,51.2,30.45,SE,135,6.0,9.4,70,0.00,,,0.00,open2300-1.11,2013-03-01 19:40:00,
2013-03-01 11:50:00,61.0,51.6,30.45,SSE,157,6.9,8.3,71,0.00,,,0.00,open2300-1.11,2013-03-01 19:50:00,
2013-03-01 12:00:00,61.3,51.6,30.45,SE,135,3.1,9.2,70,0.00,,,0.00,open2300-1.11,2013-03-01 20:00:00,
2013-03-01 12:10:00,61.5,51.7,30.46,SSE,157,0.0,8.7,70,0.00,,,0.00,open2300-1.11,2013-03-01 20:10:00,
2013-03-01 12:20:00,62.2,51.5,30.45,South,180,0.0,8.9,68,0.00,,,0.00,open2300-1.11,2013-03-01 20:20:00,
2013-03-01 12:30:00,63.1,51.5,30.44,SSW,202,7.8,8.9,66,0.00,,,0.00,open2300-1.11,2013-03-01 20:30:00,
2013-03-01 12:40:00,63.1,51.1,30.44,SSE,157,7.2,8.3,65,0.00,,,0.00,open2300-1.11,2013-03-01 20:40:00,
2013-03-01 12:50:00,63.7,51.2,30.44,SE,135,3.4,8.7,64,0.00,,,0.00,open2300-1.11,2013-03-01 20:50:00,
2013-03-01 13:00:00,63.7,51.7,30.44,SSW,202,7.8,7.8,65,0.00,,,0.00,open2300-1.11,2013-03-01 21:00:00,
2013-03-01 13:10:00,63.9,51.4,30.43,South,180,5.1,11.2,64,0.00,,,0.00,open2300-1.11,2013-03-01 21:10:00,
2013-03-01 13:20:00,64.0,51.6,30.43,SSW,202,0.0,10.5,64,0.00,,,0.00,open2300-1.11,2013-03-01 21:20:00,
2013-03-01 13:30:00,64.0,51.6,30.42,SSE,157,0.0,8.9,64,0.00,,,0.00,open2300-1.11,2013-03-01 21:30:00,
2013-03-01 13:40:00,64.0,51.6,30.42,SE,135,4.0,4.0,64,0.00,,,0.00,open2300-1.11,2013-03-01 21:40:00,
2013-03-01 13:50:00,64.2,51.7,30.41,South,180,3.4,8.3,64,0.00,,,0.00,open2300-1.11,2013-03-01 21:50:00,
2013-03-01 14:00:00,64.2,51.3,30.41,South,180,0.0,7.8,63,0.00,,,0.00,open2300-1.11,2013-03-01 22:00:00,
2013-03-01 14:10:00,64.0,50.7,30.41,South,180,6.0,8.9,62,0.00,,,0.00,open2300-1.11,2013-03-01 22:10:00,
2013-03-01 14:20:00,64.0,51.1,30.40,SSW,202,0.0,8.1,63,0.00,,,0.00,open2300-1.11,2013-03-01 22:20:00,
2013-03-01 14:30:00,64.2,50.9,30.40,SSE,157,0.0,8.3,62,0.00,,,0.00,open2300-1.11,2013-03-01 22:30:00,
2013-03-01 14:40:00,64.2,50.9,30.40,SSE,157,0.0,6.5,62,0.00,,,0.00,open2300-1.11,2013-03-01 22:40:00,
2013-03-01 14:50:00,64.0,51.1,30.39,South,180,0.0,7.4,63,0.00,,,0.00,open2300-1.11,2013-03-01 22:50:00,
2013-03-01 15:00:00,64.6,51.6,30.39,South,180,2.7,6.5,63,0.00,,,0.00,open2300-1.11,2013-03-01 23:00:00,
2013-03-01 15:10:00,64.8,51.4,30.39,South,180,0.0,4.2,62,0.00,,,0.00,open2300-1.11,2013-03-01 23:10:00,
2013-03-01 15:20:00,64.6,51.2,30.39,South,180,0.0,3.1,62,0.00,,,0.00,open2300-1.11,2013-03-01 23:20:00,
2013-03-01 15:30:00,64.2,50.9,30.38,ESE,112,0.0,0.0,62,0.00,,,0.00,open2300-1.11,2013-03-01 23:30:00,
2013-03-01 15:40:00,64.2,50.9,30.38,South,180,0.0,1.1,62,0.00,,,0.00,open2300-1.11,2013-03-01 23:40:00,
2013-03-01 15:50:00,64.0,50.7,30.38,SSW,202,0.0,6.7,62,0.00,,,0.00,open2300-1.11,2013-03-01 23:50:00,
2013-03-01 16:00:00,64.0,50.7,30.38,South,180,2.2,8.3,62,0.00,,,0.00,open2300-1.11,2013-03-02 00:00:00,
2013-03-01 16:10:00,63.5,50.2,30.38,SW,225,0.0,4.0,62,0.00,,,0.00,open2300-1.11,2013-03-02 00:10:00,
2013-03-01 16:20:00,63.1,49.9,30.37,SSW,202,0.0,6.7,62,0.00,,,0.00,open2300-1.11,2013-03-02 00:20:00,
2013-03-01 16:30:00,62.6,49.8,30.36,SSW,202,0.0,1.3,63,0.00,,,0.00,open2300-1.11,2013-03-02 00:30:00,
2013-03-01 16:40:00,62.2,49.5,30.36,West,270,0.0,2.2,63,0.00,,,0.00,open2300-1.11,2013-03-02 00:40:00,
2013-03-01 16:50:00,61.9,49.6,30.36,SSW,202,0.0,0.0,64,0.00,,,0.00,open2300-1.11,2013-03-02 00:50:00,
2013-03-01 17:00:00,61.5,49.2,30.36,WNW,292,0.0,0.0,64,0.00,,,0.00,open2300-1.11,2013-03-02 01:00:00,
2013-03-01 17:10:00,61.3,49.1,30.36,WSW,247,0.0,0.0,64,0.00,,,0.00,open2300-1.11,2013-03-02 01:10:00,
2013-03-01 17:20:00,61.0,49.2,30.36,WSW,247,0.0,2.2,65,0.00,,,0.00,open2300-1.11,2013-03-02 01:20:00,
2013-03-01 17:30:00,60.6,48.8,30.36,West,270,0.0,0.0,65,0.00,,,0.00,open2300-1.11,2013-03-02 01:30:00,
2013-03-01 17:40:00,60.1,48.7,30.36,WNW,292,0.0,0.0,66,0.00,,,0.00,open2300-1.11,2013-03-02 01:40:00,
2013-03-01 17:50:00,59.5,48.6,30.36,WNW,292,0.0,0.0,67,0.00,,,0.00,open2300-1.11,2013-03-02 01:50:00,
2013-03-01 18:00:00,58.8,48.7,30.36,WNW,292,0.0,1.3,69,0.00,,,0.00,open2300-1.11,2013-03-02 02:00:00,
2013-03-01 18:10:00,57.7,48.0,30.36,NW,315,0.0,3.4,70,0.00,,,0.00,open2300-1.11,2013-03-02 02:10:00,
2013-03-01 18:20:00,57.0,47.7,30.36,NW,315,2.2,2.2,71,0.00,,,0.00,open2300-1.11,2013-03-02 02:20:00,
2013-03-01 18:30:00,56.1,47.5,30.35,North,0,0.0,2.2,73,0.00,,,0.00,open2300-1.11,2013-03-02 02:30:00,
2013-03-01 18:40:00,55.2,46.7,30.35,NNW,337,0.0,0.0,73,0.00,,,0.00,open2300-1.11,2013-03-02 02:40:00,
2013-03-01 18:50:00,54.7,46.5,30.35,NNW,337,0.0,0.0,74,0.00,,,0.00,open2300-1.11,2013-03-02 02:50:00,
2013-03-01 19:00:00,54.3,46.5,30.36,North,0,0.0,0.0,75,0.00,,,0.00,open2300-1.11,2013-03-02 03:00:00,
2013-03-01 19:10:00,53.4,46.0,30.36,North,0,0.0,0.0,76,0.00,,,0.00,open2300-1.11,2013-03-02 03:10:00,
2013-03-01 19:20:00,52.9,45.5,30.36,NNW,337,0.0,0.0,76,0.00,,,0.00,open2300-1.11,2013-03-02 03:20:00,
2013-03-01 19:30:00,52.9,45.9,30.36,NNW,337,0.0,0.0,77,0.00,,,0.00,open2300-1.11,2013-03-02 03:30:00,
2013-03-01 19:40:00,52.9,46.2,30.36,NNW,337,0.0,0.0,78,0.00,,,0.00,open2300-1.11,2013-03-02 03:40:00,
2013-03-01 19:50:00,52.5,45.9,30.36,NNW,337,0.0,0.0,78,0.00,,,0.00,open2300-1.11,2013-03-02 03:50:00,
2013-03-01 20:00:00,52.2,45.5,30.35,NNW,337,0.0,0.0,78,0.00,,,0.00,open2300-1.11,2013-03-02 04:00:00,
2013-03-01 20:10:00,52.0,45.3,30.35,WNW,292,0.0,0.0,78,0.00,,,0.00,open2300-1.11,2013-03-02 04:10:00,
2013-03-01 20:20:00,51.8,45.2,30.35,North,0,0.0,0.0,78,0.00,,,0.00,open2300-1.11,2013-03-02 04:20:00,
2013-03-01 20:30:00,51.1,44.8,30.35,North,0,0.0,0.0,79,0.00,,,0.00,open2300-1.11,2013-03-02 04:30:00,
2013-03-01 20:40:00,50.7,44.4,30.35,North,0,0.0,0.0,79,0.00,,,0.00,open2300-1.11,2013-03-02 04:40:00,
2013-03-01 20:50:00,50.5,44.6,30.35,NNW,337,0.0,0.0,80,0.00,,,0.00,open2300-1.11,2013-03-02 04:50:00,
2013-03-01 21:00:00,50.5,44.6,30.35,NNW,337,0.0,0.0,80,0.00,,,0.00,open2300-1.11,2013-03-02 05:00:00,
2013-03-01 21:10:00,50.5,44.6,30.35,NNW,337,0.0,0.0,80,0.00,,,0.00,open2300-1.11,2013-03-02 05:10:00,
2013-03-01 21:20:00,50.5,44.6,30.35,NNW,337,0.0,0.0,80,0.00,,,0.00,open2300-1.11,2013-03-02 05:20:00,
2013-03-01 21:30:00,50.5,44.6,30.35,NNW,337,0.0,0.0,80,0.00,,,0.00,open2300-1.11,2013-03-02 05:30:00,
2013-03-01 21:40:00,50.7,44.8,30.35,NNW,337,0.0,0.0,80,0.00,,,0.00,open2300-1.11,2013-03-02 05:40:00,
2013-03-01 21:50:00,50.7,44.8,30.36,North,0,0.0,0.0,80,0.00,,,0.00,open2300-1.11,2013-03-02 05:50:00,
2013-03-01 22:00:00,50.9,45.3,30.35,NE,45,0.0,0.0,81,0.00,,,0.00,open2300-1.11,2013-03-02 06:00:00,
2013-03-01 22:10:00,51.1,45.1,30.35,NE,45,0.0,0.0,80,0.00,,,0.00,open2300-1.11,2013-03-02 06:10:00,
2013-03-01 22:20:00,51.1,45.1,30.35,NE,45,0.0,0.0,80,0.00,,,0.00,open2300-1.11,2013-03-02 06:20:00,
2013-03-01 22:30:00,51.3,45.3,30.35,NE,45,0.0,0.0,80,0.00,,,0.00,open2300-1.11,2013-03-02 06:30:00,
2013-03-01 22:40:00,51.3,45.3,30.35,NE,45,0.0,0.0,80,0.00,,,0.00,open2300-1.11,2013-03-02 06:40:00,
2013-03-01 22:50:00,51.4,45.5,30.35,NE,45,0.0,0.0,80,0.00,,,0.00,open2300-1.11,2013-03-02 06:50:00,
2013-03-01 23:10:00,51.4,45.5,30.34,NE,45,0.0,0.0,80,0.00,,,0.00,open2300-1.11,2013-03-02 07:10:00,
2013-03-01 23:20:00,51.4,45.8,30.34,NE,45,0.0,0.0,81,0.00,,,0.00,open2300-1.11,2013-03-02 07:20:00,
2013-03-01 23:30:00,51.3,45.6,30.34,North,0,0.0,0.0,81,0.00,,,0.00,open2300-1.11,2013-03-02 07:30:00,
2013-03-01 23:40:00,51.3,45.6,30.34,North,0,0.0,0.0,81,0.00,,,0.00,open2300-1.11,2013-03-02 07:40:00,
2013-03-01 23:50:00,51.3,45.6,30.34,North,0,0.0,0.0,81,0.00,,,0.00,open2300-1.11,2013-03-02 07:50:00,